Terug naar catalogus

STARLINK-31310

ActiefCommunicatieVLEO
NORAD 59092·PAYLOAD·🇺🇸 United States

Gelanceerd Feb 29, 2024 vanaf Cape Canaveral Space Force Station

Loading…

Volgende Passages (komende 24 uur)

TLE

VersSource: CelesTrak SupGP

Epoch: Sep 14, 2026, 20:35 UTC

1 59092C 24041U   26257.85812500 -.00022521  00000+0 -81579-3 0  2570
2 59092  43.0031 322.8100 0001485 276.3200 217.0905 15.27587073    12

Volg STARLINK-31310 in realtime met AllMySat

Download on the App Store